This demonstration page uses our WeatherBlox Daily Observations layout. Learn more.

Left ArrowRight Arrow

Hourly Observations for September 4, 2016

Temp ( °F °C ) Dew Point ( °F °C ) Humidity (%) Winds ( mph kmh ) Pressure ( in mb ) Visibility ( mi km ) Precip ( " mm )
12:51 am 00:51 Clear 79 26.1 42 5.6 27 27 N 5 7 29.65 1004 10 16.0934 0 0
1:51 am 01:51 Clear 74 23.3 44 6.7 34 34 S 5 7 29.67 1005 10 16.0934 0 0
2:51 am 02:51 Clear 73 22.8 46 7.8 38 38 ESE 6 9 29.67 1005 10 16.0934 0 0
3:51 am 03:51 Clear 70 21.1 44 6.7 39 39 E 6 9 29.68 1005 10 16.0934 0 0
4:51 am 04:51 Clear 69 20.6 45 7.2 42 42 E 7 11 29.7 1006 10 16.0934 0 0
5:51 am 05:51 Clear 69 20.6 44 6.7 41 41 S 5 7 29.7 1006 10 16.0934 0 0
6:51 am 06:51 Sunny 72 22.2 46 7.8 40 40 SE 6 9 29.73 1007 10 16.0934 0 0
7:51 am 07:51 Sunny 80 26.7 45 7.2 29 29 ESE 9 15 29.73 1007 10 16.0934 0 0
8:51 am 08:51 Sunny 86 30 43 6.1 22 22 E 8 13 29.73 1007 10 16.0934 0 0
9:51 am 09:51 Sunny 90 32.2 42 5.6 19 19 ESE 9 15 29.71 1006 10 16.0934 0 0
10:51 am 10:51 Sunny 92 33.3 39 3.9 16 16 Calm 29.68 1005 10 16.0934 0 0
11:51 am 11:51 Sunny 94 34.4 35 1.7 13 13 ESE 7 11 29.66 1005 10 16.0934 0 0
12:51 pm 12:51 Sunny 96 35.6 34 1.1 11 11 VRB 3 6 29.64 1004 10 16.0934 0 0
1:51 pm 13:51 Sunny 97 36.1 36 2.2 12 12 VRB 5 7 29.62 1003 10 16.0934 0 0
2:51 pm 14:51 Sunny 99 37.2 37 2.8 12 12 WSW 9 15 29.6 1002 10 16.0934 0 0
3:51 pm 15:51 Sunny 98 36.7 37 2.8 12 12 ESE 5 7 29.59 1002 10 16.0934 0 0
4:51 pm 16:51 Sunny 98 36.7 38 3.3 12 12 VRB 3 6 29.58 1002 10 16.0934 0 0
5:51 pm 17:51 Sunny 97 36.1 38 3.3 13 13 WNW 9 15 29.58 1002 10 16.0934 0 0
6:51 pm 18:51 Clear 92 33.3 38 3.3 15 15 WSW 7 11 29.58 1002 10 16.0934 0 0
7:51 pm 19:51 Clear 89 31.7 36 2.2 15 15 WNW 9 15 29.59 1002 10 16.0934 0 0
8:51 pm 20:51 Clear 86 30 34 1.1 15 15 NW 10 17 29.61 1003 10 16.0934 0 0
9:51 pm 21:51 Clear 83 28.3 28 -2.2 13 13 NW 8 13 29.62 1003 10 16.0934 0 0
10:51 pm 22:51 Clear 79 26.1 27 -2.8 15 15 NW 7 11 29.63 1004 10 16.0934 0 0
11:51 pm 23:51 Clear 78 25.6 25 -3.9 14 14 NNW 8 13 29.63 1004 10 16.0934 0 0

Powered by AerisWeather